Location: Chuathbaluk
(61.5726°N, 159.2454°W)
Time: 15:19:25
(UTC+00:00)

Transit 4A - All Passes

Search period start: 26 November 2020 00:00
Search period end: 06 December 2020 00:00
Orbit: 862 x 982 km, 66.8° (Epoch: 25 November)

Date Brightness Start Highest point End Pass type
(mag) Time Alt. Az. Time Alt. Az. Time Alt. Az.
26 Nov - 00:44:47 10° WNW 00:51:10 60° NNE 00:57:28 10° E daylight
26 Nov - 02:31:30 10° NW 02:37:58 80° SW 02:44:17 10° SE visible
26 Nov - 04:18:13 10° WNW 04:23:43 31° WSW 04:29:05 10° S visible
26 Nov - 17:51:49 10° SE 17:55:12 15° ESE 17:58:37 10° ENE visible
26 Nov - 19:34:08 10° SSW 19:40:11 46° SE 19:46:17 10° NE daylight
26 Nov - 21:19:56 10° WSW 21:26:23 80° NNW 21:32:51 10° ENE daylight
26 Nov - 23:07:06 10° W 23:13:27 55° N 23:19:44 10° ENE daylight
27 Nov - 00:54:13 10° WNW 01:00:39 65° NNE 01:06:59 10° ESE daylight
27 Nov - 02:40:53 10° NW 02:47:16 67° SW 02:53:30 10° SE visible
27 Nov - 04:27:47 10° WNW 04:32:44 24° WSW 04:37:37 10° SSW visible
27 Nov - 17:59:44 10° SSE 18:04:07 20° ESE 18:08:32 10° ENE visible
27 Nov - 19:43:09 10° SSW 19:49:23 57° SE 19:55:40 10° NE daylight
27 Nov - 21:29:22 10° WSW 21:35:48 71° NNW 21:42:15 10° ENE daylight
27 Nov - 23:16:39 10° WNW 23:22:58 54° N 23:29:15 10° ENE daylight
28 Nov - 01:03:39 10° WNW 01:10:07 72° NNE 01:16:28 10° ESE daylight
28 Nov - 02:50:16 10° NW 02:56:31 55° SW 03:02:37 10° SSE visible
28 Nov - 04:37:29 10° WNW 04:41:43 19° WSW 04:45:52 10° SSW visible
28 Nov - 18:08:03 10° SSE 18:13:06 25° ESE 18:18:12 10° ENE visible
28 Nov - 19:52:16 10° SW 19:58:39 69° SE 20:05:03 10° NE daylight
28 Nov - 21:38:52 10° WSW 21:45:17 64° NNW 21:51:41 10° ENE daylight
28 Nov - 23:26:10 10° WNW 23:32:30 55° N 23:38:47 10° E daylight
29 Nov - 01:13:04 10° WNW 01:19:33 81° NNE 01:25:54 10° ESE daylight
29 Nov - 02:59:40 10° NW 03:05:42 45° SW 03:11:37 10° SSE visible
29 Nov - 04:47:30 10° WNW 04:50:37 14° WSW 04:53:42 10° SW visible
29 Nov - 18:16:37 10° S 18:22:09 32° ESE 18:27:44 10° ENE visible
29 Nov - 20:01:32 10° SW 20:07:57 82° SE 20:14:25 10° NE daylight
29 Nov - 21:48:24 10° W 21:54:46 59° NNW 22:01:07 10° ENE daylight
29 Nov - 23:35:40 10° WNW 23:42:02 57° NNE 23:48:18 10° E daylight
30 Nov - 01:22:27 10° NW 01:28:56 88° SW 01:35:16 10° SE daylight
30 Nov - 03:09:06 10° WNW 03:14:50 36° WSW 03:20:27 10° S visible
30 Nov - 04:58:58 10° W 04:59:27 10° W 04:59:56 10° WSW visible
30 Nov - 16:44:03 10° ESE 16:46:28 12° E 16:48:53 10° ENE visible
30 Nov - 18:25:23 10° S 18:31:15 40° ESE 18:37:12 10° NE visible
30 Nov - 20:10:52 10° SW 20:17:19 86° NW 20:23:47 10° NE daylight
30 Nov - 21:57:57 10° W 22:04:17 56° N 22:10:36 10° ENE daylight
30 Nov - 23:45:08 10° WNW 23:51:32 61° NNE 23:57:50 10° E daylight
01 Dec - 01:31:50 10° NW 01:38:15 76° SW 01:44:33 10° SE daylight
01 Dec - 03:18:35 10° WNW 03:23:54 28° WSW 03:29:06 10° S visible
01 Dec - 16:51:33 10° SE 16:55:21 17° ESE 16:59:10 10° ENE visible
01 Dec - 18:34:17 10° SSW 18:40:26 50° SE 18:46:36 10° NE daylight
01 Dec - 20:20:16 10° WSW 20:26:43 76° NNW 20:33:11 10° ENE daylight
01 Dec - 22:07:28 10° W 22:13:49 55° N 22:20:06 10° ENE daylight
01 Dec - 23:54:34 10° WNW 00:01:00 67° NNE 00:07:20 10° ESE daylight
02 Dec - 01:41:12 10° NW 01:47:32 63° SW 01:53:44 10° SSE daylight
02 Dec - 03:28:12 10° WNW 03:32:55 22° WSW 03:37:33 10° SSW visible
02 Dec - 16:59:38 10° SSE 17:04:17 22° ESE 17:08:59 10° ENE visible
02 Dec - 18:43:21 10° SSW 18:49:39 61° SE 18:55:59 10° NE daylight
02 Dec - 20:29:44 10° WSW 20:36:09 68° NNW 20:42:34 10° ENE daylight
02 Dec - 22:17:01 10° WNW 22:23:21 54° N 22:29:37 10° E daylight
03 Dec - 00:03:59 10° WNW 00:10:28 75° NNE 00:16:48 10° ESE daylight
03 Dec - 01:50:35 10° NW 01:56:46 51° SW 02:02:48 10° SSE daylight
03 Dec - 03:37:59 10° WNW 03:41:52 17° WSW 03:45:40 10° SW visible
03 Dec - 17:08:02 10° S 17:13:18 28° ESE 17:18:36 10° ENE visible
03 Dec - 18:52:32 10° SW 18:58:56 74° SE 19:05:22 10° NE daylight
03 Dec - 20:39:14 10° W 20:45:38 62° NNW 20:52:01 10° ENE daylight
03 Dec - 22:26:32 10° WNW 22:32:52 56° N 22:39:09 10° E daylight
04 Dec - 00:13:23 10° WNW 00:19:52 85° NNE 00:26:12 10° ESE daylight
04 Dec - 02:00:00 10° NW 02:05:56 41° WSW 02:11:44 10° S daylight
04 Dec - 03:48:13 10° WNW 03:50:44 13° W 03:53:14 10° WSW visible
04 Dec - 17:16:41 10° S 17:22:22 35° ESE 17:28:05 10° ENE visible
04 Dec - 19:01:49 10° SW 19:08:16 86° SE 19:14:44 10° NE daylight
04 Dec - 20:48:46 10° W 20:55:08 58° NNW 21:01:28 10° ENE daylight
04 Dec - 22:36:01 10° WNW 22:42:23 59° NNE 22:48:40 10° E daylight
05 Dec - 00:22:46 10° NW 00:29:14 84° SW 00:35:32 10° SE daylight
05 Dec - 02:09:27 10° WNW 02:15:02 33° WSW 02:20:30 10° S visible
05 Dec - 15:43:35 10° SE 15:46:35 14° ESE 15:49:37 10° ENE visible
05 Dec - 17:25:30 10° SSW 17:31:30 44° SE 17:37:31 10° NE visible
05 Dec - 19:11:11 10° WSW 19:17:38 82° NNW 19:24:06 10° ENE daylight
05 Dec - 20:58:19 10° W 21:04:39 55° N 21:10:57 10° ENE daylight
05 Dec - 22:45:28 10° WNW 22:51:54 63° NNE 22:58:11 10° E daylight
